TimeEDT,TemperatureF,Dew PointF,Humidity,Sea Level PressureIn,VisibilityMPH,Wind Direction,Wind SpeedMPH,Gust SpeedMPH,PrecipitationIn,Events,Conditions,WindDirDegrees,DateUTC
12:53 AM,57.9,55.9,93,30.09,4.0,Calm,Calm,-,N/A,,Clear,0,2013-09-20 04:53:00
1:01 AM,55.4,55.4,100,30.10,1.8,Calm,Calm,-,N/A,,Clear,0,2013-09-20 05:01:00
1:10 AM,55.4,53.6,94,30.10,0.5,Calm,Calm,-,N/A,Fog,Fog,0,2013-09-20 05:10:00
1:27 AM,53.6,53.6,100,30.10,0.8,Calm,Calm,-,N/A,,Clear,0,2013-09-20 05:27:00
1:34 AM,53.6,53.6,100,30.10,1.5,Calm,Calm,-,N/A,,Clear,0,2013-09-20 05:34:00
1:46 AM,55.4,55.4,100,30.10,0.5,Calm,Calm,-,N/A,Fog,Fog,0,2013-09-20 05:46:00
1:53 AM,57.9,57.0,97,30.09,0.2,Calm,Calm,-,N/A,Fog,Fog,0,2013-09-20 05:53:00
2:53 AM,54.0,54.0,100,30.08,0.2,Calm,Calm,-,N/A,Fog,Fog,0,2013-09-20 06:53:00
3:53 AM,53.1,53.1,100,30.09,0.2,Calm,Calm,-,N/A,Fog,Fog,0,2013-09-20 07:53:00
4:53 AM,51.1,51.1,100,30.09,0.2,Calm,Calm,-,N/A,Fog,Fog,0,2013-09-20 08:53:00
5:05 AM,50.0,50.0,100,30.09,1.0,Calm,Calm,-,N/A,,Mist,0,2013-09-20 09:05:00
5:08 AM,50.0,50.0,100,30.09,2.0,Calm,Calm,-,N/A,,Scattered Clouds,0,2013-09-20 09:08:00
5:18 AM,51.8,51.8,100,30.09,0.8,Calm,Calm,-,N/A,,Mostly Cloudy,0,2013-09-20 09:18:00
5:26 AM,50.0,50.0,100,30.08,0.2,Calm,Calm,-,N/A,Fog,Fog,0,2013-09-20 09:26:00
5:34 AM,51.8,51.8,100,30.08,0.2,Calm,Calm,-,N/A,Fog,Fog,0,2013-09-20 09:34:00
5:53 AM,52.0,51.1,97,30.07,0.5,Calm,Calm,-,N/A,Fog,Fog,0,2013-09-20 09:53:00
6:38 AM,50.0,50.0,100,30.09,0.2,Calm,Calm,-,N/A,Fog,Fog,0,2013-09-20 10:38:00
6:53 AM,51.1,51.1,100,30.09,0.8,Calm,Calm,-,N/A,,Overcast,0,2013-09-20 10:53:00
7:04 AM,51.8,51.8,100,30.09,1.2,Calm,Calm,-,N/A,,Overcast,0,2013-09-20 11:04:00
7:11 AM,53.6,51.8,94,30.09,3.0,Calm,Calm,-,N/A,,Overcast,0,2013-09-20 11:11:00
7:53 AM,55.0,55.0,100,30.08,4.0,Calm,Calm,-,N/A,,Overcast,0,2013-09-20 11:53:00
8:53 AM,57.0,55.9,96,30.08,4.0,Calm,Calm,-,N/A,,Scattered Clouds,0,2013-09-20 12:53:00
9:53 AM,64.9,59.0,81,30.07,9.0,Calm,Calm,-,N/A,,Partly Cloudy,0,2013-09-20 13:53:00
10:53 AM,69.1,60.1,73,30.06,10.0,Calm,Calm,-,N/A,,Scattered Clouds,0,2013-09-20 14:53:00
11:53 AM,73.9,61.0,64,30.04,10.0,South,9.2,-,N/A,,Partly Cloudy,170,2013-09-20 15:53:00
12:40 PM,73.4,60.8,65,30.06,10.0,SW,10.4,-,N/A,,Overcast,230,2013-09-20 16:40:00
12:53 PM,73.0,61.0,66,30.04,10.0,South,6.9,-,N/A,,Mostly Cloudy,190,2013-09-20 16:53:00
1:53 PM,75.9,61.0,60,30.01,10.0,South,9.2,-,N/A,,Overcast,190,2013-09-20 17:53:00
2:53 PM,77.0,60.1,56,30.00,10.0,SSE,10.4,-,N/A,,Mostly Cloudy,160,2013-09-20 18:53:00
3:53 PM,79.0,60.1,52,29.97,10.0,South,10.4,-,N/A,,Clear,170,2013-09-20 19:53:00
4:53 PM,75.9,60.1,58,29.97,10.0,South,9.2,-,N/A,,Partly Cloudy,170,2013-09-20 20:53:00
5:53 PM,75.0,61.0,62,29.96,10.0,South,10.4,-,N/A,,Clear,170,2013-09-20 21:53:00
6:53 PM,73.0,61.0,66,29.94,10.0,South,5.8,-,N/A,,Clear,170,2013-09-20 22:53:00
7:53 PM,66.9,60.1,79,29.95,10.0,SW,5.8,-,N/A,,Clear,220,2013-09-20 23:53:00
8:53 PM,68.0,60.1,76,29.95,10.0,SSW,6.9,-,N/A,,Clear,210,2013-09-21 00:53:00
9:53 PM,66.9,60.1,79,29.95,10.0,SW,5.8,-,N/A,,Clear,230,2013-09-21 01:53:00
10:53 PM,66.9,60.1,79,29.94,10.0,South,5.8,-,N/A,,Mostly Cloudy,190,2013-09-21 02:53:00
11:53 PM,64.9,60.1,84,29.91,10.0,SSW,3.5,-,N/A,,Mostly Cloudy,200,2013-09-21 03:53:00